Regional Weather Roundup
Issued by NWS

Home | Current Version | Previous Version | Graphics & Text | Print | Product List | Glossary On
Versions: 1 2 3 4 5 6 7 8 9 10 11 12 13 14 15 16 17 18 19 20 21 22 23 24 25 26 27 28 29 30 31 32 33 34 35 36 37 38 39 40 41 42 43 44 45 46 47 48 49 50
000
ASUS43 KIND 281159
RWRIN

WEATHER ROUNDUP FOR INDIANA
NATIONAL WEATHER SERVICE INDIANAPOLIS IN
800 AM EDT THU MAY 28 2015

NOTE: "FAIR" INDICATES FEW OR NO CLOUDS BELOW 12,000 FEET WITH NO
SIGNIFICANT WEATHER AND/OR OBSTRUCTIONS TO VISIBILITY.

* - STATION DOES NOT REPORT WEATHER SUCH AS PRECIPITATION OR FOG.

+ - STATION NOT QUALITY CONTROLLED BY THE NATIONAL WEATHER SERVICE.
    USE DATA WITH CAUTION...ESPECIALLY DEWPOINT AND RELATIVE
    HUMIDITY OBSERVATIONS.

INZ001>003-010>013-019-020-281300-
NORTHWEST INDIANA

CITY           SKY/WX    TMP DP  RH WIND       PRES   REMARKS
GARY /AIRPORT/ MOSUNNY   61  57  88 CALM      30.22R
RENSSELAER +   SUNNY     59  59 100 NE3       30.21S

$$

LMZ046-743>745-281300-
SOUTHERN LAKE MICHIGAN

STATION/POSITION TIME  TEMP    WIND        PRES    WAVE
                       AIR SEA DIR/SP/G            HT
                 (UTC) (F)     (DEG/KT/KT) (MB)    (FT)
BURNS HARBOR     1100   61     170/  4/  7 1023.4R
MICHIGAN CITY    1100   58     120/ 10/ 10   N/A
5NW MICH CITY    1100   55 53  170/  4/  4   N/A     0

$$

INZ004-005-014>016-021>024-281300-
NORTH CENTRAL INDIANA

CITY           SKY/WX    TMP DP  RH WIND       PRES   REMARKS
ELKHART        SUNNY     57  57 100 CALM      30.22S FOG
GOSHEN         SUNNY     58  56  93 CALM      30.21F FOG
6HR MIN TEMP:  50; 6HR MAX TEMP:  58;

SOUTH BEND     SUNNY     59  56  89 E5        30.22S
6HR MIN TEMP:  52; 6HR MAX TEMP:  59;


$$

INZ006>009-017-018-025>027-281300-
NORTHEAST INDIANA

CITY           SKY/WX    TMP DP  RH WIND       PRES   REMARKS
ANGOLA *+      SUNNY     57  57 100 CALM      30.22S
FORT WAYNE     MOSUNNY   60  57  89 E6        30.23R
6HR MIN TEMP:  53; 6HR MAX TEMP:  60;


$$

INZ028-029-035-036-043>045-051>053-281300-
WEST CENTRAL INDIANA

CITY           SKY/WX    TMP DP  RH WIND       PRES   REMARKS
CRAWFORDSVL +  SUNNY     60  51  72 NE3       30.21R
6HR MIN TEMP:  51; 6HR MAX TEMP:  61;

GREENCASTLE +  SUNNY     63  54  72 CALM      30.21R
LAFAYETTE      SUNNY     60  57  89 CALM      30.20R FOG
6HR MIN TEMP:  51; 6HR MAX TEMP:  60;

TERRE HAUTE    MOSUNNY   65  59  81 E5        30.19R
6HR MIN TEMP:  56; 6HR MAX TEMP:  65;


$$

INZ030>032-037>040-046>048-054>057-064-065-281300-
CENTRAL INDIANA

CITY           SKY/WX    TMP DP  RH WIND       PRES   REMARKS
COLUMBUS       SUNNY     63  59  88 CALM      30.19S FOG
GREENWOOD *+   SUNNY     64  54  68 E7        30.21R
INDIANAPOLIS   MOSUNNY   64  56  75 NE9       30.19R
6HR MIN TEMP:  60; 6HR MAX TEMP:  66;

-EAGLE CREEK   SUNNY     63  57  81 VRB5      30.20R
6HR MIN TEMP:  56; 6HR MAX TEMP:  64;

KOKOMO *+      SUNNY     59  55  88 E5        30.22R
6HR MIN TEMP:  54; 6HR MAX TEMP:  59;

MT COMFORT *+  SUNNY     63 N/A N/A NE6       30.21S
SHELBYVILLE    MOSUNNY   66  61  84 E3        30.19S HAZE
6HR MIN TEMP:  61; 6HR MAX TEMP:  69;


$$

INZ033-034-041-042-049-050-058-059-281300-
EAST CENTRAL INDIANA

CITY           SKY/WX    TMP DP  RH WIND       PRES   REMARKS
MUNCIE         SUNNY     62  57  83 E6        30.21S
6HR MIN TEMP:  56; 6HR MAX TEMP:  65;


$$

INZ060-061-067>069-081>083-085>088-281300-
SOUTHWEST INDIANA

CITY           SKY/WX    TMP DP  RH WIND       PRES   REMARKS
EVANSVILLE     PTSUNNY   65  64  97 CALM      30.18R FOG
6HR MIN TEMP:  63; 6HR MAX TEMP:  68;

HUNTINGBURG *+ CLOUDY    66  63  88 S5        30.19R VSB<1/4
6HR MIN TEMP:  63; 6HR MAX TEMP:  66;


$$

INZ062-063-066-070>080-084-089>092-281300-
SOUTH CENTRAL AND SOUTHEAST INDIANA

CITY           SKY/WX    TMP DP  RH WIND       PRES   REMARKS
BLOOMINGTON    MOSUNNY   62  61  96 CALM      30.19R FOG
6HR MIN TEMP:  59; 6HR MAX TEMP:  66;

MADISON *+     CLOUDY    64  63  94 CALM      30.22S
SEYMOUR +      CLOUDY    68  64  88 CALM      30.19S FOG

$$



USA.gov is the U.S. government's official web portal to all federal, state and local government web resources and services.